FENGYUN 1C DEB

Satellite information

Favourite Embed

Satellite Type and Status

DEBRISDECAYED

Key statistics

Satellite FENGYUN 1C DEB at a glance.

Uptime

9423

Days in orbit

Revolutions

≈ 15.7

Per day

Orbit

SSO

Sun Synchronous Orbit

Inclination

99.4

Latest

Satellite identification and parameters

Extended collection of information and parameters for FENGYUN 1C DEB.

Object identification

Identified? True

Debris? True

Object name: FENGYUN 1C DEB

International designator: 1999-025AJL

Object number (NORAD): 30522

Object ID (CCSDS): 30522

Country: PEOPLES REPUBLIC OF CHINA (PRC)

Current information (Y/N): Y

RCS size: SMALL

Orbital parameters

Decay date: Feb. 25, 2025

Period: 91.977 minutes

Inclination: 99.3505 deg

SMA: 6749.649 km

Apoapsis: 388.32 km

Periapsis: 354.708 km

RAAN: 140.78 deg

Eccentricy: 0.0024899

Argument of periapsis: 310.7614 deg

Mean anomaly: 49.1478 deg

Mean motion: 15.65600689 rev/day

Mean motion (dot): 0.01498376 rev/day2

B* drag term: 0.013216 1/REarth

Two-line elements (TLE)

Creation date: Feb. 12, 2025, 10:46 p.m.

Reference frame: TEME

Reference center: EARTH

Epoch: Feb. 12, 2025, 12:41 p.m. UTC

TLE line 0: 0 FENGYUN 1C DEB

TLE line 1: 1 30522U 99025AJL 25043.52914318 .01498376 00000-0 13216-1 0 9996

TLE line 2: 2 30522 99.3505 140.7800 0024899 310.7614 49.1478 15.65600689954174

Live tracking on map

Satellite FENGYUN 1C DEB has decayed and is no longer in orbit. No tracking available.

In-orbit conjunctions

Satellite FENGYUN 1C DEB has decayed and is no longer in orbit. No conjunctions available.

Associated space launch

Chinese polar orbiting meteorological satellite

FENGYUN 1C DEB was lifted into orbit during the mission ‘Long March 4B | Feng Yun 1C’, on board a Long March 4B space rocket.

The launch took place on May 10, 1999, 1:33 a.m. from Launch Complex 7.

For more information about the launch, click the button.

Launch to space Long March 4B | Feng Yun 1C
Long March 4B | Feng Yun 1C

Agency: N/A

Status: Launch Successful

Launch date: May 10, 1999, 1:33 a.m. UTC

Rocket: Long March 4B

Launch pad: Launch Complex 7

Location: Taiyuan Satellite Launch Center, People's Republic of China

...

Latest news about this satellite

There are no fresh news available about this satellite. Check back as we update our databases every day.


Newsletter sign-up

Weekly statistics, charts and insights to help you stay on top of the space industry.